User: anonymous   Login
Location: Unspecified
(43.4680°N, 87.1740°E)
Time: 14:03:20
(UTC+00:00)
Language:

CZ-4B R/B - Orbit

View from above orbital plane
View from above orbital plane
View from above satellite
View from above satellite

Ground track
Ground track

The orbit data is extracted from the following two-line orbital elements,

1 32959U 08026B   21170.64641137 -.00000003  00000-0  13997-4 0  9994
2 32959  98.8961 131.3458 0069172 284.1608 249.7589 14.41799662687217
Epoch (UTC): 19 June 2021 15:30:49
Eccentricity: 0.0069172
inclination: 98.8961°
perigee height: 703 km
apogee height: 802 km
right ascension of ascending node: 131.3458°
argument of perigee: 284.1608°
revolutions per day: 14.41799662
mean anomaly at epoch: 249.7589°
orbit number at epoch: 68721

The dashed part of the orbit path shows where the satellite is in the earth's shadow,  

DLR